Hourly Weather Al-Jadida

Today, 4 July, Saturday

Time Temperature Precipitation Wind Pressure Humidity
00:00 +20°C° 0 mm 5 mps 763 mmHg 85%
01:00 +20°C° 0 mm 4 mps 763 mmHg 87%
02:00 +20°C° 0 mm 4 mps 762 mmHg 88%
03:00 +20°C° 0 mm 4 mps 762 mmHg 89%
04:00 +20°C° 0 mm 4 mps 762 mmHg 90%
05:00 +20°C° 0 mm 4 mps 762 mmHg 91%
06:00 +21°C° 0 mm 4 mps 762 mmHg 81%
07:00 +23°C° 0 mm 4 mps 762 mmHg 71%
08:00 +25°C° 0 mm 4 mps 762 mmHg 61%
09:00 +26°C° 0 mm 4 mps 762 mmHg 59%
10:00 +27°C° 0 mm 5 mps 762 mmHg 56%
11:00 +28°C° 0 mm 5 mps 762 mmHg 54%
12:00 +28°C° 0 mm 6 mps 761 mmHg 53%
13:00 +28°C° 0 mm 6 mps 761 mmHg 53%
14:00 +29°C° 0 mm 6 mps 760 mmHg 52%
15:00 +28°C° 0 mm 6 mps 760 mmHg 55%
16:00 +27°C° 0 mm 6 mps 760 mmHg 59%
17:00 +27°C° 0 mm 5 mps 760 mmHg 62%
18:00 +25°C° 0 mm 5 mps 761 mmHg 72%
19:00 +23°C° 0 mm 4 mps 761 mmHg 82%
20:00 +22°C° 0 mm 3 mps 762 mmHg 92%
21:00 +22°C° 0 mm 4 mps 762 mmHg 93%
22:00 +22°C° 0 mm 4 mps 762 mmHg 94%
23:00 +22°C° 0 mm 4 mps 762 mmHg 95%

Tomorrow, 5 July, Sunday

Time Temperature Precipitation Wind Pressure Humidity
00:00 +22°C° 0 mm 4 mps 761 mmHg 95%
01:00 +22°C° 0 mm 4 mps 761 mmHg 95%
02:00 +22°C° 0 mm 4 mps 760 mmHg 94%
03:00 +21°C° 0 mm 4 mps 760 mmHg 94%
04:00 +21°C° 0 mm 4 mps 760 mmHg 93%
05:00 +21°C° 0 mm 4 mps 760 mmHg 93%
06:00 +23°C° 0 mm 4 mps 759 mmHg 80%
07:00 +27°C° 0 mm 4 mps 759 mmHg 67%
08:00 +29°C° 0 mm 4 mps 759 mmHg 54%
09:00 +30°C° 0 mm 5 mps 759 mmHg 52%
10:00 +32°C° 0 mm 5 mps 759 mmHg 49%
11:00 +33°C° 0 mm 6 mps 759 mmHg 47%
12:00 +33°C° 0 mm 6 mps 759 mmHg 47%
13:00 +33°C° 0 mm 7 mps 759 mmHg 46%
14:00 +32°C° 0 mm 7 mps 758 mmHg 45%
15:00 +32°C° 0 mm 7 mps 759 mmHg 47%
16:00 +30°C° 0 mm 6 mps 759 mmHg 49%
17:00 +29°C° 0 mm 6 mps 759 mmHg 50%
18:00 +28°C° 0 mm 5 mps 759 mmHg 53%
19:00 +27°C° 0 mm 5 mps 760 mmHg 56%
20:00 +26°C° 0 mm 4 mps 760 mmHg 58%
21:00 +26°C° 0 mm 4 mps 760 mmHg 56%
22:00 +27°C° 0 mm 4 mps 759 mmHg 55%
23:00 +27°C° 0 mm 4 mps 759 mmHg 53%

Day after tomorrow, 6 July, Monday

Time Temperature Precipitation Wind Pressure Humidity
00:00 +27°C° 0 mm 5 mps 758 mmHg 54%
01:00 +26°C° 0 mm 5 mps 758 mmHg 55%
02:00 +26°C° 0 mm 6 mps 757 mmHg 57%
03:00 +26°C° 0 mm 6 mps 757 mmHg 58%
04:00 +26°C° 0 mm 7 mps 757 mmHg 59%
05:00 +26°C° 0 mm 7 mps 757 mmHg 60%
06:00 +28°C° 0 mm 7 mps 757 mmHg 54%
07:00 +30°C° 0 mm 7 mps 757 mmHg 48%
08:00 +33°C° 0 mm 7 mps 757 mmHg 43%
09:00 +34°C° 0 mm 7 mps 757 mmHg 40%
10:00 +36°C° 0 mm 7 mps 757 mmHg 38%
11:00 +38°C° 0 mm 8 mps 757 mmHg 36%
12:00 +38°C° 0 mm 8 mps 757 mmHg 36%
13:00 +37°C° 0 mm 8 mps 756 mmHg 36%
14:00 +37°C° 0 mm 8 mps 756 mmHg 35%
15:00 +35°C° 0 mm 8 mps 756 mmHg 37%
16:00 +34°C° 0 mm 8 mps 756 mmHg 39%
17:00 +33°C° 0 mm 8 mps 756 mmHg 41%
18:00 +30°C° 0 mm 7 mps 757 mmHg 47%
19:00 +29°C° 0 mm 5 mps 757 mmHg 52%
20:00 +28°C° 0 mm 4 mps 758 mmHg 57%
21:00 +27°C° 0 mm 5 mps 758 mmHg 58%
22:00 +27°C° 0 mm 5 mps 758 mmHg 59%
23:00 +27°C° 0 mm 6 mps 758 mmHg 61%

7 July, Tuesday

Time Temperature Precipitation Wind Pressure Humidity
00:00 +26°C° 0 mm 6 mps 757 mmHg 62%
01:00 +26°C° 0 mm 6 mps 756 mmHg 62%
02:00 +26°C° 0 mm 6 mps 756 mmHg 63%
03:00 +26°C° 0 mm 6 mps 756 mmHg 63%
04:00 +26°C° 0 mm 6 mps 756 mmHg 63%
05:00 +26°C° 0 mm 7 mps 756 mmHg 63%
06:00 +28°C° 0 mm 7 mps 756 mmHg 57%
07:00 +30°C° 0 mm 7 mps 756 mmHg 50%
08:00 +33°C° 0 mm 7 mps 757 mmHg 43%
09:00 +34°C° 0 mm 7 mps 757 mmHg 42%
10:00 +35°C° 0 mm 7 mps 757 mmHg 41%
11:00 +36°C° 0 mm 7 mps 757 mmHg 40%
12:00 +35°C° 0 mm 7 mps 756 mmHg 41%
13:00 +35°C° 0 mm 8 mps 756 mmHg 42%
14:00 +34°C° 0 mm 8 mps 756 mmHg 43%
15:00 +33°C° 0 mm 8 mps 756 mmHg 48%
16:00 +30°C° 0 mm 7 mps 757 mmHg 53%
17:00 +29°C° 0 mm 7 mps 757 mmHg 59%
18:00 +27°C° 0 mm 6 mps 758 mmHg 64%
19:00 +26°C° 0 mm 5 mps 758 mmHg 69%
20:00 +25°C° 0 mm 4 mps 759 mmHg 74%
21:00 +25°C° 0 mm 3 mps 759 mmHg 75%
22:00 +24°C° 0 mm 3 mps 760 mmHg 77%
23:00 +24°C° 0 mm 2 mps 760 mmHg 78%

8 July, Wednesday

Time Temperature Precipitation Wind Pressure Humidity
00:00 +24°C° 0 mm 3 mps 760 mmHg 78%
01:00 +22°C° 0 mm 3 mps 759 mmHg 78%
02:00 +22°C° 0 mm 3 mps 759 mmHg 78%
03:00 +22°C° 0 mm 4 mps 759 mmHg 82%
04:00 +22°C° 0 mm 5 mps 759 mmHg 85%
05:00 +21°C° 0 mm 5 mps 760 mmHg 88%
06:00 +23°C° 0 mm 5 mps 760 mmHg 80%
07:00 +25°C° 0 mm 5 mps 760 mmHg 72%
08:00 +26°C° 0 mm 5 mps 760 mmHg 64%
09:00 +27°C° 0 mm 5 mps 760 mmHg 61%
10:00 +28°C° 0 mm 6 mps 760 mmHg 58%
11:00 +28°C° 0 mm 6 mps 760 mmHg 55%
12:00 +28°C° 0 mm 6 mps 760 mmHg 56%
13:00 +28°C° 0 mm 6 mps 760 mmHg 57%
14:00 +28°C° 0 mm 7 mps 760 mmHg 57%
15:00 +27°C° 0 mm 7 mps 760 mmHg 61%
16:00 +26°C° 0 mm 6 mps 760 mmHg 65%
17:00 +24°C° 0 mm 6 mps 761 mmHg 69%
18:00 +23°C° 0 mm 5 mps 761 mmHg 75%
19:00 +22°C° 0 mm 4 mps 762 mmHg 82%
20:00 +21°C° 0 mm 3 mps 763 mmHg 88%
21:00 +21°C° 0 mm 3 mps 762 mmHg 88%
22:00 +20°C° 0 mm 3 mps 762 mmHg 89%
23:00 +20°C° 0 mm 3 mps 762 mmHg 90%

9 July, Thursday

Time Temperature Precipitation Wind Pressure Humidity
00:00 +20°C° 0 mm 3 mps 762 mmHg 90%
01:00 +20°C° 0 mm 4 mps 761 mmHg 91%
02:00 +20°C° 0 mm 4 mps 761 mmHg 91%
03:00 +20°C° 0 mm 4 mps 761 mmHg 89%
04:00 +20°C° 0 mm 4 mps 761 mmHg 86%
05:00 +21°C° 0 mm 4 mps 761 mmHg 84%
06:00 +21°C° 0 mm 4 mps 761 mmHg 78%
07:00 +22°C° 0 mm 4 mps 761 mmHg 73%
08:00 +23°C° 0 mm 4 mps 761 mmHg 68%
09:00 +25°C° 0 mm 4 mps 761 mmHg 64%
10:00 +26°C° 0 mm 5 mps 761 mmHg 61%
11:00 +27°C° 0 mm 5 mps 761 mmHg 57%
12:00 +27°C° 0 mm 5 mps 760 mmHg 57%
13:00 +27°C° 0 mm 6 mps 760 mmHg 57%
14:00 +27°C° 0 mm 6 mps 759 mmHg 57%
15:00 +26°C° 0 mm 6 mps 759 mmHg 60%
16:00 +24°C° 0 mm 6 mps 759 mmHg 63%
17:00 +24°C° 0 mm 6 mps 759 mmHg 66%
18:00 +23°C° 0 mm 6 mps 759 mmHg 71%
19:00 +22°C° 0 mm 5 mps 760 mmHg 77%
20:00 +21°C° 0 mm 5 mps 760 mmHg 83%
21:00 +21°C° 0 mm 5 mps 760 mmHg 84%
22:00 +21°C° 0 mm 5 mps 759 mmHg 86%
23:00 +20°C° 0 mm 5 mps 759 mmHg 88%
Show more